STARLINK-5741, 55582

Orbit data source: Space-Track

STARLINK-5741, 55582 is a payload satellite owned by SpaceX/Seattle (US) in LEO that was launched on Sun, 12 Feb 2023 UTC via an FALCON 9 launch vehicle from the Air Force Eastern Test Range (AFETR). Payload-class satellites include a variety of spacecraft equipped with specific instruments for various scientific and technological missions. These include communications satellites like Starlink; space stations such as the ISS; scientific satellites like the Hubble; Earth observation satellites from companies like Planet Labs, Umbra, and HawkEye 360; GPS; miniature CubeSats for education and research; and military/defense satellites.

Loading next visibility...
Identifier
55582, 2023-020P
Orbit
LEO
Country
Flag of USUS
Related business
Manufacturer
SpaceX/Seattle
Mission
Operational Commercial Communications
Bus & Motor
STARLINK, Unknown motor
Mass
305 kg wet, ~290 kg dry
Launch date (UTC)
2023-02-12 (3 years ago)
Launch vehicle
FALCON 9
Launch site
Air Force Eastern Test Range (AFETR)
Object type
Payload
Rocket body
Debris
Shape & HBR
Box + 1 Pan, 10.1 m
Radar Cross Section
13.562 m², Large (>1 m²)

Expand to show TLE details & history
Last TLE update: 1 day ago

TLE from 1 day ago
0 STARLINK-5741
1 55582U 23020P   26061.29258181 -.00001230  00000-0 -76052-4 0  9995
2 55582  43.0051  32.1157 0001222 274.2857  85.7846 15.02526011167950
Epoch: 2026-03-02T07:01Z
TLE epoch observation values (Epoch: 2026-03-02T07:01:19.068Z)
Latitude
Longitude
126.69817°
Altitude
558.827 km
Speed
7.584 km/s
True Right ascension
02h 08m 27s
True Declination
0° 00' 00"
Sunlit
Object was in daylight at epoch
Visualization orbit readout
Latitude
Unknown
Longitude
Unknown
Altitude
Unknown
Speed
Unknown
Apparent Right ascension
Unknown
Apparent Declination
Unknown
Sunlit
N/A
Visualization observer readout
Local Sidereal Time
16:29:12
Azimuth
Unknown
Elevation
Unknown
Doppler factor
Unknown
Orbital elements
Apogee altitude
561.881 km
Perigee altitude
560.185 km
Semi-major axis
6,939.17 km
Eccentricity
0.00012
Inclination
43.0051°
RAAN
32.1157°
Arg. of periapsis
274.2857°
True anomaly
85.79857°
Mean anomaly
85.7846°
Eccentric anomaly
85.79158°
Mean motion
3.75476 °/min
Orbital period
95.88 mins
BSTAR
-0.000076052
Loading maneuver chart data...
Computing Atmospheric mass density...
Loading historical data...
Loading historical data...
Loading historical data...
Loading historical data...
Loading historical data...
Loading historical data...
Loading historical data...

Documentation

Showing up to 5 results
|